This is the latest recevied weather packets stored in our database for station/object DL9SEC-13. If no packets are shown the sender has not sent any weather packets the latest 10 day(s).
| Time | Temp. | Humidity | Pressure | Rain* | Wind** | Luminosity | Snow |
|---|---|---|---|---|---|---|---|
| 1778117103 | 9.44° C | 93% | 1013.4 hPa | 0 mm | - | - | - |
| 1778116203 | 9.44° C | 93% | 1013.3 hPa | 0 mm | - | - | - |
| 1778115303 | 9.44° C | 92% | 1013.3 hPa | 0 mm | - | - | - |
| 1778114404 | 9.44° C | 92% | 1013.4 hPa | 0 mm | - | - | - |
| 1778113503 | 9.44° C | 94% | 1013.4 hPa | 0 mm | - | - | - |
| 1778112603 | 9.44° C | 93% | 1013.4 hPa | 0 mm | - | - | - |
| 1778111704 | 9.44° C | 92% | 1013.4 hPa | 0 mm | - | - | - |
| 1778110803 | 9.44° C | 92% | 1013.5 hPa | 0 mm | - | - | - |
| 1778109904 | 10° C | 92% | 1013.6 hPa | 0 mm | - | - | - |
| 1778109003 | 10° C | 92% | 1013.5 hPa | 0 mm | - | - | - |
| 1778108103 | 10° C | 90% | 1013.5 hPa | 0 mm | - | - | - |
| 1778107203 | 10.56° C | 91% | 1013.3 hPa | 0 mm | - | - | - |
| 1778106303 | 10.56° C | 90% | 1013.1 hPa | 0 mm | - | - | - |
| 1778105403 | 10.56° C | 94% | 1013 hPa | 0 mm | - | - | - |
| 1778104504 | 10.56° C | 93% | 1013 hPa | 0 mm | - | - | - |
| 1778103603 | 10.56° C | 92% | 1013 hPa | 0 mm | - | - | - |
| 1778102703 | 10.56° C | 95% | 1012.7 hPa | 0 mm | - | - | - |
| 1778101803 | 10.56° C | 95% | 1012.7 hPa | 0 mm | - | - | - |
| 1778100903 | 10.56° C | 95% | 1012.6 hPa | 0 mm | - | - | - |
| 1778100002 | 10.56° C | 95% | 1012.7 hPa | 0 mm | - | - | - |
| 1778099103 | 10.56° C | 95% | 1012.7 hPa | 0 mm | - | - | - |
| 1778098203 | 10.56° C | 95% | 1012.5 hPa | 0 mm | - | - | - |
| 1778097303 | 10.56° C | 95% | 1012.3 hPa | 0.25 mm | - | - | - |
| 1778096403 | 10.56° C | 95% | 1012.3 hPa | 0.25 mm | - | - | - |
| 1778095503 | 10.56° C | 94% | 1012 hPa | 0.25 mm | - | - | - |
* Rain latest hour (hover to see other rain measurements)
** Current wind speed in m/s (hover to see current wind gust speed)